Location: B?lite?ti
(46.2833°N, 22.7333°E)
Time: 03:08:38
(UTC+00:00)

ARGOS - Pass Details

Date: 24 January 2021
Orbit: 821 x 834 km, 98.4° (Epoch: 26 February)

Event Time Altitude Azimuth Distance (km) Brightness Sun altitude
Rises 16:15:19 0° 127° (SE) 3,347 6.0 -9.3°
Reaches altitude 10° 16:18:01 10° 115° (ESE) 2,420 5.2 -9.8°
Maximum altitude 16:22:17 25° 62° (ENE) 1,617 4.1 -10.5°
Drops below altitude 10° 16:26:34 10° 9° (N) 2,438 5.4 -11.2°
Sets 16:29:18 0° 356° (N) 3,378 6.2 -11.6°
